星链-1737 (STARLINK-1737 )

导读 | 豆包AI

STARLINK-1737是美国太空探索技术公司(SpaceX)星链星座的成员,于2020年10月6日发射升空。作为星链互联网卫星组网的一部分,它运行在近地轨道,旨在为全球提供高速低延迟宽带互联网服务,尤其助力偏远地区网络覆盖,推动全球互联基础设施建设,是SpaceX大规模卫星互联网部署计划中的重要节点。

基本信息
目录编号:
46586
目录名称:
STARLINK-1737
国际标识:
2020-070BG
轨道中心:
EARTH
卫星名称:
星链-1737
卫星全名:
星链-1737 (STARLINK-1737 )
卫星状态:
已陨落 最后检测时间 2025-02-08
发射日期:
2020-10-06 UTC
国别 :
美国 (US)
星等 :
--
轨道信息
数据来源 国际轨道数据
星历时间: 2025-02-09T06:00:23+0800
轨道信息已过期419天
半长轴: 6532.392km
偏心率: 0.0002227
轨道倾角: 53.015°
近地点辐角 354.237°
升交点赤经 84.067°
平近点角 84.261°
近地点: 152.802km
远地点: 155.712km
周期: 87.573分钟
每日圈数: 16.443507
详细信息
固有亮度:
5
最大亮度:
2.5
卫星平台:
Starlink V1.0
覆盖范围:
全球
运营商:
太空探索技术公司
运营商所在国:
美国
制造商(研发单位):
太空探索技术公司
制造商所在国:
美国
使用方式:
暂无
卫星简介
星链(Starlink)计划是由太空探索技术公司(SpaceX)提出的一个巨型低轨卫星互联网星座项目,计划在2019年至2024年间在太空搭建由约1.2万颗卫星组成的“星链”网络,其中1584颗将部署在地球上空550千米处的近地轨道,并从2020年开始工作。该卫星仍在工作。